[[{"header":{"parameterUnit":"m.s-1","parameterCategory":1,"la1":30.2991,"la2":30.254,"lo1":-89.0895,"lo2":-89.0444,"dy":0.0017,"dx":0.0017,"nx":28,"ny":28,"refTime":"2025-04-25T21:00:00:Z","depth":0,"parameterNumber":2,"parameterNumberName":"U-component_of_WINDS"},"data":[0,0,0,0,0,0,0,0,0,0,0,0,0,0,0,0,0,0,0,0,0,0,0,0,0,0,0,0,0,0,0,0,0,0,0,0,0,0,0,0,0,0,0,0,0,0,0,0,0,0,0,0,0,0,0,0,0,0,0.91,0.9101,0,0.9136,0.9136,0.9137,0.9127,0.9126,0.9125,0.9124,0.9161,0.9162,0.9164,0,0,0,0,0,0,0,0,0,0,0,0,0,0.9024,0.9025,0.91,0.9101,0.9101,0.9136,0.9136,0.9137,0.9127,0.9126,0.9125,0.9124,0.916,0.9162,0.9164,0,0,0,0,0,0,0,0,0,0,0,0,0,0.9058,0.9026,0.91,0.91,0.9101,0.9136,0.9136,0.9137,0.9127,0.9126,0.9125,0.9124,0.9159,0.9162,0.9164,0.9201,0,0,0.9172,0.9173,0,0,0,0,0,0,0,0,0.9056,0.9061,0.91,0.91,0.9101,0.9126,0.9122,0.9158,0.9127,0.9117,0.9124,0.9123,0.915,0.9153,0.9162,0.9203,0.9204,0.9172,0.9173,0.9174,0.9175,0,0,0,0,0,0,0,0.9054,0.9059,0.9114,0.91,0.9101,0.9099,0.9102,0.9129,0.9139,0.9118,0.9117,0.9121,0.915,0.916,0.9163,0.9205,0.9172,0.9174,0.9176,0.9176,0.9277,0.9278,0,0,0,0,0,0,0.9051,0.9057,0.9113,0.9115,0.9075,0.9101,0.9105,0.9119,0.9139,0.9141,0.9122,0.9121,0.9156,0.916,0.9164,0.9208,0.9174,0.9177,0.9178,0.9276,0.9277,0.9279,0,0,0,0,0,0,0.9049,0.9056,0.9112,0.9086,0.9093,0.9103,0.9119,0.912,0.913,0.9142,0.9144,0.9131,0.9155,0.9161,0.9192,0.9209,0.9178,0.918,0.9275,0.9276,0.9278,0.9297,0,0,0,0,0,0,0.9047,0.9055,0.907,0.9087,0.9094,0.9139,0.912,0.9122,0.9134,0.9133,0.915,0.9152,0.9155,0.9188,0.9194,0.9212,0.9182,0.9273,0.9275,0.9278,0.9295,0.9299,0.9303,0,0,0,0,0,0.9044,0.9074,0.907,0.9077,0.9112,0.914,0.9145,0.9147,0.9136,0.915,0.9158,0.9152,0.9206,0.9192,0.9198,0.9217,0.9272,0.9275,0.9277,0.9293,0.9298,0.9303,0,0,0,0,0,0,0.9058,0.9076,0.9072,0.9108,0.9123,0.9138,0.9156,0.9153,0.9171,0.9169,0.9171,0.9175,0.9207,0.9215,0.9198,0.9254,0.9238,0.9242,0.9247,0.9252,0.9256,0.9253,0.9184,0,0,0,0,0,0.9065,0.9087,0.9101,0.9131,0.9138,0.9146,0.9158,0.9159,0.9174,0.918,0.9191,0.9206,0.9226,0.924,0.9259,0.9296,0.93,0.9312,0.9316,0.932,0.9323,0.9343,0.9348,0.9288,0.9288,0.9288,0,0,0.9081,0.9093,0.9106,0.9134,0.9145,0.9167,0.9151,0.9175,0.9191,0.9184,0.9214,0.9222,0.9239,0.9273,0.9289,0.9281,0.9341,0.9323,0.9325,0.9327,0.9346,0.9352,0.9357,0.929,0.9289,0.9289,0,0,0.9119,0.9131,0.9157,0.9168,0.9186,0.9191,0.9197,0.9214,0.9219,0.9249,0.9244,0.9263,0.9299,0.9311,0.9322,0.9365,0.936,0.9371,0.9392,0.9411,0.9416,0.942,0.9435,0.944,0.9375,0.9375,0.9375,0,0.9135,0.9168,0.917,0.9195,0.9207,0.9201,0.9228,0.9239,0.9262,0.9271,0.9262,0.9306,0.9317,0.9354,0.9364,0.9373,0.938,0.9369,0.9415,0.9419,0.9423,0.9438,0.9443,0.9376,0.9376,0.9376,0.9375,0,0.9187,0.921,0.9229,0.9251,0.9266,0.9291,0.9297,0.9311,0.9311,0.9317,0.9347,0.936,0.9382,0.9391,0.9391,0.9428,0.9422,0.9414,0.9398,0.943,0.9444,0.9449,0.9378,0.9377,0.9377,0.9377,0,0,0.9235,0.9259,0.9265,0.9275,0.9294,0.9312,0.9337,0.9358,0.9371,0.9387,0.9407,0.9437,0.943,0.9442,0.9443,0.946,0.9493,0.945,0.945,0.9457,0.9534,0.9539,0.9546,0.949,0.9491,0.9492,0.9532,0,0.9275,0.9318,0.9321,0.9361,0.9382,0.9377,0.9398,0.9412,0.9419,0.9437,0.9444,0.9465,0.9454,0.9461,0.9478,0.9485,0.9508,0.9483,0.9509,0.951,0.9504,0.9553,0.9559,0.9596,0.9538,0.9538,0.9539,0,0.9327,0.9345,0.9386,0.9402,0.9411,0.943,0.945,0.9468,0.9484,0.9487,0.9501,0.9499,0.9525,0.9508,0.9542,0.9525,0.9536,0.9541,0.9543,0.9545,0.9526,0.9556,0.9608,0.9614,0.9547,0.9547,0.9546,0,0.9357,0.9391,0.9421,0.9429,0.9449,0.9462,0.9471,0.9486,0.9499,0.9516,0.9524,0.9544,0.9555,0.9571,0.9575,0.9562,0.9609,0.9593,0.9612,0.9612,0.9622,0.9621,0.9677,0.963,0.963,0.963,0.963,0,0.9401,0.9426,0.9434,0.9452,0.9481,0.9484,0.9512,0.9519,0.9532,0.9552,0.9549,0.9567,0.9571,0.959,0.9594,0.9621,0.9627,0.963,0.963,0.963,0.9629,0.9636,0.9634,0.9631,0.9631,0.9631,0.963,0,0.9439,0.9446,0.9477,0.9493,0.9498,0.9518,0.9531,0.9548,0.9554,0.9578,0.9584,0.9594,0.9616,0.9621,0.9648,0.965,0.9683,0.9681,0.9677,0.9677,0.9696,0.9694,0.9757,0.9766,0.9714,0.9715,0.9715,0,0.9466,0.9486,0.9504,0.9516,0.9526,0.9546,0.9559,0.9563,0.9577,0.9596,0.9611,0.9632,0.965,0.9685,0.9694,0.9714,0.9713,0.9734,0.9716,0.9714,0.9712,0.9711,0.9712,0.9737,0.9737,0.9738,0.9738,0,0.9514,0.9516,0.9535,0.9555,0.9571,0.9587,0.9602,0.9612,0.9618,0.9634,0.9656,0.967,0.9696,0.9718,0.9738,0.9747,0.9743,0.9744,0.9749,0.9749,0.9745,0.9747,0.9686,0.9742,0.9742,0.9741,0.9741,0.9741,0.9547,0.9564,0.9579,0.96,0.9612,0.9627,0.9643,0.9651,0.967,0.9692,0.9693,0.9718,0.9733,0.976,0.9769,0.9788,0.9782,0.979,0.9792,0.9794,0.9795,0.9743,0.9792,0.9792,0.9792,0.9792,0.9792,0,0.9594,0.9604,0.9623,0.9644,0.9661,0.9657,0.9673,0.9687,0.9709,0.9723,0.974,0.9766,0.9787,0.9797,0.9818,0.9831,0.983,0.9836,0.9835,0.9837,0.98,0.9793,0.9836,0.9836,0.9836,0.9836,0.9836,0.9836,0.962,0.9648,0.9653,0.9687,0.9696,0.972,0.973,0.9743,0.9754,0.9783,0.98,0.9807,0.982,0.9841,0.986,0.9863,0.987,0.9877,0.9879,0.9844,0.9839,0.9835,0.9828,0.9879,0.9879,0.9914,0.9914,0.9914]},{"header":{"parameterUnit":"m.s-1","parameterCategory":1,"la1":30.2991,"la2":30.254,"lo1":-89.0895,"lo2":-89.0444,"dy":0.0017,"dx":0.0017,"nx":28,"ny":28,"refTime":"2025-04-25T21:00:00:Z","depth":0,"parameterNumber":3,"parameterNumberName":"V-component_of_WINDS"},"data":[0,0,0,0,0,0,0,0,0,0,0,0,0,0,0,0,0,0,0,0,0,0,0,0,0,0,0,0,0,0,0,0,0,0,0,0,0,0,0,0,0,0,0,0,0,0,0,0,0,0,0,0,0,0,0,0,0,0,0.2873,0.2874,0,0.2953,0.2954,0.2955,0.2985,0.2985,0.2985,0.2984,0.3066,0.3068,0.3071,0,0,0,0,0,0,0,0,0,0,0,0,0,0.2745,0.2747,0.2873,0.2874,0.2875,0.2953,0.2954,0.2955,0.2985,0.2985,0.2985,0.2984,0.3065,0.3068,0.3071,0,0,0,0,0,0,0,0,0,0,0,0,0,0.281,0.2748,0.2873,0.2899,0.2902,0.2953,0.2954,0.2956,0.2985,0.2985,0.2985,0.2984,0.3064,0.3068,0.3071,0.3101,0,0,0.3082,0.3084,0,0,0,0,0,0,0,0,0.2806,0.2815,0.2894,0.2897,0.2901,0.2959,0.2939,0.3004,0.2985,0.2954,0.2984,0.2984,0.3031,0.3037,0.3053,0.3105,0.3108,0.3083,0.3085,0.3086,0.3087,0,0,0,0,0,0,0,0.2802,0.2812,0.2905,0.2895,0.29,0.2907,0.2916,0.2951,0.2993,0.2957,0.2959,0.2968,0.3032,0.3049,0.3055,0.3109,0.3082,0.3086,0.3088,0.3089,0.319,0.3191,0,0,0,0,0,0,0.2793,0.2808,0.2902,0.2907,0.2852,0.291,0.292,0.2941,0.2993,0.3001,0.2968,0.2969,0.3043,0.3051,0.3058,0.3097,0.3086,0.309,0.3092,0.319,0.3191,0.3191,0,0,0,0,0,0,0.279,0.2801,0.2899,0.2858,0.2871,0.2912,0.2936,0.2942,0.2959,0.3002,0.3009,0.2978,0.3043,0.3053,0.309,0.31,0.3091,0.3095,0.3189,0.319,0.3191,0.3174,0,0,0,0,0,0,0.2786,0.28,0.2812,0.2858,0.2873,0.293,0.2936,0.2944,0.2966,0.2968,0.3013,0.302,0.3044,0.3085,0.3094,0.3105,0.3097,0.3189,0.319,0.3191,0.3174,0.3174,0.3175,0,0,0,0,0,0.2782,0.2803,0.2812,0.2823,0.2889,0.293,0.2939,0.2966,0.2966,0.2979,0.3006,0.3019,0.3097,0.3088,0.3099,0.3111,0.3188,0.3189,0.3191,0.3174,0.3174,0.3175,0,0,0,0,0,0,0.2757,0.281,0.282,0.2858,0.2889,0.2935,0.2952,0.2965,0.2997,0.2998,0.303,0.304,0.3075,0.3096,0.3086,0.3143,0.3144,0.3147,0.3127,0.3128,0.3128,0.3123,0.31,0,0,0,0,0,0.2756,0.2785,0.283,0.2859,0.2874,0.291,0.2929,0.2947,0.2981,0.2995,0.3025,0.3057,0.3089,0.311,0.3142,0.3177,0.3188,0.3191,0.3191,0.3191,0.3194,0.3215,0.3217,0.3195,0.3195,0.3195,0,0,0.2754,0.2787,0.2803,0.2855,0.2881,0.2912,0.2921,0.2952,0.2975,0.3,0.3037,0.306,0.3098,0.3135,0.3153,0.3154,0.3202,0.3192,0.3192,0.3195,0.3216,0.3218,0.322,0.3196,0.3196,0.3196,0,0,0.2766,0.2793,0.2821,0.2847,0.2888,0.2912,0.2918,0.2962,0.2979,0.3017,0.3036,0.3063,0.3118,0.3144,0.3165,0.3187,0.32,0.3196,0.3198,0.3218,0.322,0.3222,0.323,0.3233,0.3199,0.3199,0.3199,0,0.2758,0.2805,0.2833,0.2864,0.2886,0.291,0.2938,0.2962,0.3011,0.3025,0.3026,0.3096,0.3123,0.3167,0.3172,0.3188,0.3196,0.3192,0.3217,0.3219,0.3221,0.323,0.3233,0.3198,0.3198,0.3198,0.3198,0,0.2794,0.2826,0.2843,0.289,0.2914,0.2943,0.2976,0.2997,0.3012,0.3036,0.3075,0.3108,0.3148,0.3159,0.3175,0.3205,0.3205,0.3211,0.3213,0.3222,0.3231,0.3235,0.3197,0.3197,0.3198,0.3198,0,0,0.2793,0.2855,0.2861,0.2883,0.2929,0.2955,0.2985,0.3024,0.3041,0.3074,0.31,0.3146,0.3152,0.3175,0.3194,0.3211,0.3228,0.3216,0.3217,0.3218,0.3264,0.326,0.3263,0.3237,0.3237,0.3238,0.3261,0,0.2812,0.2867,0.2894,0.2938,0.2968,0.2991,0.3017,0.3048,0.3071,0.31,0.3124,0.3157,0.3162,0.3176,0.3195,0.3222,0.3238,0.3221,0.3262,0.3263,0.3252,0.3268,0.3263,0.3284,0.3265,0.3266,0.3266,0,0.2841,0.2874,0.2921,0.2965,0.2978,0.3002,0.304,0.3067,0.3102,0.3118,0.3144,0.3162,0.3195,0.3193,0.3239,0.3227,0.3245,0.3261,0.3262,0.3268,0.3266,0.3275,0.3291,0.3295,0.3271,0.3271,0.3271,0,0.2837,0.2893,0.2929,0.2946,0.2998,0.3014,0.3036,0.3071,0.3093,0.3126,0.3141,0.3177,0.3197,0.3224,0.3252,0.3248,0.3295,0.3295,0.3309,0.3308,0.3318,0.3317,0.3339,0.3328,0.3328,0.3328,0.3328,0,0.2856,0.2884,0.2928,0.2949,0.2982,0.3012,0.3042,0.3066,0.3098,0.3125,0.3146,0.3171,0.3205,0.3234,0.3256,0.3291,0.3299,0.3313,0.3318,0.3311,0.331,0.3324,0.3324,0.3329,0.3329,0.3329,0.3328,0,0.2856,0.2887,0.2927,0.2973,0.2985,0.3007,0.3045,0.3068,0.3091,0.3125,0.3135,0.3172,0.3208,0.3238,0.3284,0.3298,0.3335,0.3341,0.3323,0.3326,0.3338,0.3336,0.337,0.3376,0.336,0.3361,0.3361,0,0.2867,0.2889,0.2937,0.2957,0.2979,0.301,0.3033,0.3063,0.3086,0.3129,0.3146,0.3183,0.3214,0.3269,0.33,0.3336,0.3344,0.3353,0.3349,0.3342,0.3345,0.3344,0.3346,0.3353,0.3353,0.3353,0.3353,0,0.2882,0.2896,0.2928,0.2966,0.2992,0.3023,0.3054,0.3069,0.3105,0.3129,0.3166,0.319,0.3238,0.3275,0.3314,0.3336,0.3351,0.3354,0.3359,0.3353,0.3342,0.3349,0.3324,0.3353,0.3353,0.3353,0.3353,0.3353,0.2889,0.291,0.2947,0.2982,0.3009,0.3038,0.3061,0.3088,0.312,0.3161,0.3177,0.3215,0.325,0.3304,0.3327,0.3357,0.3359,0.3366,0.3368,0.3369,0.3369,0.3336,0.3364,0.3364,0.3364,0.3364,0.3364,0,0.2906,0.2931,0.2963,0.3007,0.3034,0.3046,0.3081,0.3103,0.3137,0.3169,0.3199,0.3242,0.3277,0.3311,0.3349,0.3366,0.3374,0.3375,0.3374,0.3379,0.3364,0.3357,0.3368,0.3368,0.3368,0.3368,0.3368,0.3368,0.2918,0.2955,0.2974,0.3024,0.3049,0.3086,0.3106,0.3132,0.3158,0.3205,0.3235,0.3257,0.329,0.333,0.3363,0.3372,0.3385,0.3385,0.3395,0.3381,0.338,0.3379,0.3372,0.3387,0.3387,0.3408,0.3408,0.3409]}]]